Regional Weather Roundup
Issued by NWS

Home | Current Version | Previous Version | Graphics & Text | Print | Product List | Glossary On
Versions: 1 2 3 4 5 6 7 8 9 10 11 12 13 14 15 16 17 18 19 20 21 22 23 24 25 26 27 28 29 30 31 32 33 34 35 36 37 38 39 40 41 42 43 44 45 46 47 48 49 50
000
ASUS43 KDTX 032010
RWRMI
MICHIGAN HOURLY REGIONAL WEATHER ROUNDUP
NATIONAL WEATHER SERVICE DETROIT/PONTIAC MI
400 PM EDT SUN MAY 03 2015

NOTE: "FAIR" INDICATES FEW OR NO CLOUDS BELOW 12,000 FEET WITH NO
SIGNIFICANT WEATHER AND/OR OBSTRUCTION TO VISIBILITY.

MIZ047>049-052>055-059>063-066>070-074>076-081>083-032100-
SOUTHEAST LOWER MICHIGAN

CITY           SKY/WX    TMP DP  RH WIND       PRES   REMARKS
ADRIAN         MOSUNNY   78  42  27 SW15G23   30.01F
ALMA           PTSUNNY   79  42  26 SW10G17   29.96F
ANN ARBOR      SUNNY     79  43  27 SW13      30.01F
BAD AXE        MOSUNNY   78  39  24 SW14G22   29.97F
CARO           MOSUNNY   79  43  28 S3        29.96F
DETROIT CITY   SUNNY     77  44  30 S18G25    30.00F
DETROIT        MOSUNNY   80  42  25 SW12G23   30.02F
FLINT          MOSUNNY   80  41  24 SW15G21   29.98F
GROSSE ILE     SUNNY     72  46  40 SE9       30.01F
HILLSDALE      SUNNY     78  42  27 SW8G21    30.01F
HOWELL         PTSUNNY   78  39  24 SW10G18   29.99F

CITY           SKY/WX    TMP DP  RH WIND       PRES   REMARKS
JACKSON        MOSUNNY   77  43  29 S13G21    30.00F
LAMBERTVILLE   SUNNY     79  43  27 SW6G17    30.02F
LANSING        PTSUNNY   78  43  28 SW12G22   29.98F
LAPEER         FAIR      79  37  22 SW12      29.99F
MASON          MOSUNNY   78  40  26 SW8G18    29.98F
MONROE         SUNNY     79  45  29 SW15G22   30.00F
MT. CLEMENS    MOSUNNY   78  48  34 S18       29.98F
PONTIAC        MOSUNNY   77  40  26 S13G20    29.99F
PORT HOPE        N/A     79  41  25 S10G21    29.94F
PORT HURON     SUNNY     77  46  33 S20       30.01S
TRI CITIES     PTSUNNY   81  42  25 SW13G24   29.95F
MIDLAND        PTSUNNY   80  41  24 SW17G24   29.93F
TROY           MOSUNNY   80  38  22 SW16G22   30.02F
SAGINAW HB     PTSUNNY   79  37  22 SW13G25   29.95F
$$
MIZ043>046-050>051-056>058-064>065-071>073-077>080-032100-
SOUTHWEST LOWER MICHIGAN

CITY           SKY/WX    TMP DP  RH WIND       PRES   REMARKS
BATTLE CREEK   PTSUNNY   79  46  31 SW15G24   29.99F
BENTON HARBOR  CLOUDY    77  48  35 SW13      29.96F
BIG RAPIDS     MOSUNNY   78  41  26 SW23G30   29.93F
COLDWATER      MOSUNNY   75  45  33 SW6G18    30.00F
FREMONT        FAIR      76  38  25 SW18      29.95S
HOLLAND        CLOUDY    76  46  34 SW17G24   29.97F
GRAND RAPIDS   PTSUNNY   76  44  32 SW14      29.96F
IONIA          PTSUNNY   78  42  27 SW12G21   29.95F
KALAMAZOO      PTSUNNY   78  46  32 S13       29.98F
LUDINGTON      MOSUNNY   75  45  33 SW21G26   29.92S
MARSHALL       MOSUNNY   77  46  33 S14G20    29.99S
MOUNT PLEASANT PTSUNNY   80  42  25 S17G24    29.94F
MUSKEGON       PTSUNNY   71  43  36 S16G24    29.95F
SOUTH HAVEN    CLOUDY    76  39  26 W10G17    29.97F
$$
MIZ016>042-032100-
NORTHERN LOWER MICHIGAN

CITY           SKY/WX    TMP DP  RH WIND       PRES   REMARKS
ALPENA         PTSUNNY   78  43  28 SW10G23   29.90S
BEAVER ISLAND  MOSUNNY   72  38  29 SW16G26   29.87F
BELLAIRE       PTSUNNY   78  43  28 SW7       29.88F
CADILLAC       PTSUNNY   77  45  31 SW22      29.92F
CHARLEVOIX     PTSUNNY   77  47  34 SW13G23   29.90F
FRANKFORT      MOSUNNY   76  35  22 S12G18    29.89F
GAYLORD        MOSUNNY   76  45  33 W16G24    29.91F
GRAYLING       PTSUNNY   76  44  31 SW10G20   29.93F
HARBOR SPRINGS MOSUNNY   71  48  44 W8        29.88F
HOUGHTON LAKE  PTSUNNY   75  45  34 W10G20    29.93F
MANISTEE       MOSUNNY   75  45  33 S13G23    29.90F
OSCODA         CLOUDY    77  41  27 S16G24    29.92F
PELLSTON       SUNNY     78  48  34 SW10G25   29.88F
ROGERS CITY    CLOUDY    65  46  49 NE5       29.91S
TRAVERSE CITY  PTSUNNY   79  44  28 S10G22    29.88F
$$
MIZ007>008-015-032100-
EASTERN UPPER MICHIGAN

CITY           SKY/WX    TMP DP  RH WIND       PRES   REMARKS
KINROSS        MOSUNNY   73  46  38 SW13G28   29.88S
MACKINAC ISLAN MOSUNNY   70  47  43 W10G21    29.88S
NEWBERRY       MOSUNNY   69  46  43 SW17G25   29.85F
S. S. MARIE    PTSUNNY   76  47  35 SW13G24   29.85F
MUNISING         N/A     79  50  36 S10G23    29.77F
$$
MIZ004>006-011>014-085-032100-
CENTRAL UPPER MICHIGAN

CITY           SKY/WX    TMP DP  RH WIND       PRES   REMARKS
MANISTIQUE     MOSUNNY   51  38  60 S12G18    29.86S
ESCANABA       SUNNY     66  45  45 S10G16    29.81S
MENOMINEE      MOSUNNY   79  52  38 S20G26    29.80S
SAWYER-GWINN   MOSUNNY   79  48  34 S10G18    29.76F
$$
MIZ001>003-009>011-084-032100-
WESTERN UPPER MICHIGAN

CITY           SKY/WX    TMP DP  RH WIND       PRES   REMARKS
IRON MOUNTAIN  MOSUNNY   81  49  32 SW14G25   29.76F
HOUGHTON       PTSUNNY   74  50  42 NW18      29.74F
COPPER HARBOR    N/A     64  47  53 N5        29.74S
IRONWOOD       CLOUDY    75  52  43 NW12      29.73S
$$

ABBREVIATIONS USED IN REMARKS
   TC - TEMPERATURE IN CELSIUS
  WCI - WIND CHILL INDEX
   HX - HEAT INDEX
  VSB - VISIBILITY



USA.gov is the U.S. government's official web portal to all federal, state and local government web resources and services.